Weather History for CWAR - December, 2012

Change the Weather History Date:

Sunday, December 2, 2012

  Actual Average Record
Temperature  
Mean Temperature 26 °F -  
Max Temperature 31 °F - - ()
Min Temperature 22 °F - - ()
Degree Days  
Heating Degree Days 38    
Moisture  
Dew Point 17 °F    
Average Humidity 63    
Maximum Humidity 73    
Minimum Humidity 48    
Precipitation  
Precipitation 0.00 in - - ()
Sea Level Pressure  
Sea Level Pressure 30.60 in    
Wind  
Wind Speed 12 mph ()    
Max Wind Speed 20 mph    
Max Gust Speed 28 mph    
T = Trace of Precipitation, MM = Missing Value Source: Averaged Metar Reports

Daily Weather History Graph

Daily Weather History Graph

Search for Another Location

Airport or City:

Trip Planner

Search our weather history database for the weather conditions in past years. The results will help you decide how hot, cold, wet, or windy it might be!

Date:

Astronomy

Dec. 02, 2012 Rise Set
Actual Time 7:33 AM NST 4:17 PM NST
Civil Twilight 6:58 AM NST 4:52 PM NST
Nautical Twilight 6:20 AM NST 5:30 PM NST
Astronomical Twilight 5:43 AM NST 6:07 PM NST
Moon 8:05 PM NST (12/2) 10:14 AM NST (12/2)
Length of Visible Light 9h 53m
Length of Day
8h 43m
Waning Gibbous, 86% of the Moon is Illuminated
Dec 2
Waning Gibbous
Dec 6
Last Quarter
Dec 13
New
Dec 20
First Quarter
Dec 28
Full

Hourly Weather History & Observations

Time (NST) Temp. Windchill Dew Point Humidity Pressure Visibility Wind Dir Wind Speed Gust Speed Precip Events Conditions
12:30 AM 24.8 °F 10.7 °F 13.5 °F 62% 30.54 in - NW 19.6 mph 26.5 mph N/A   Unknown
1:30 AM 24.3 °F 10.0 °F 13.8 °F 64% 30.56 in - NNW 19.6 mph - N/A   Unknown
2:30 AM 24 °F - 12 °F 48% 30.59 in - NNW 19.6 mph - -  
2:30 AM 23.7 °F 9.3 °F 12.4 °F 62% 30.59 in - NNW 19.6 mph 27.6 mph N/A   Unknown
3:30 AM 23.5 °F 10.3 °F 13.8 °F 66% 30.60 in - NNW 16.1 mph - N/A   Unknown
4:30 AM 23.4 °F 11.6 °F 13.6 °F 66% 30.61 in - NW 12.7 mph 19.6 mph N/A   Unknown
5:30 AM 23 °F - 13 °F 54% 30.63 in - NW 13.8 mph - -  
5:30 AM 23.4 °F 11.1 °F 13.3 °F 65% 30.63 in - NW 13.8 mph - N/A   Unknown
6:30 AM 22.8 °F 12.2 °F 11.7 °F 62% 30.64 in - WNW 10.4 mph - N/A   Unknown
7:30 AM 22.8 °F 11.5 °F 12.6 °F 65% 30.65 in - NW 11.5 mph - N/A   Unknown
8:30 AM 24 °F - 14 °F 52% 30.67 in - NW 12.7 mph - -  
8:30 AM 23.5 °F 11.8 °F 13.6 °F 66% 30.67 in - NW 12.7 mph - N/A   Unknown
9:30 AM 24.3 °F 12.7 °F 13.8 °F 64% 30.67 in - NW 12.7 mph - N/A   Unknown
10:30 AM 25.2 °F 15.7 °F 13.6 °F 62% 30.68 in - NW 9.2 mph - N/A   Unknown
11:30 AM 26 °F - 15 °F 50% 30.66 in - WNW 6.9 mph - -  
11:30 AM 25.7 °F 18.0 °F 14.9 °F 64% 30.66 in - WNW 6.9 mph - N/A   Unknown
12:30 PM 27.5 °F 22.2 °F 17.6 °F 66% 30.64 in - WNW 4.6 mph - N/A   Unknown
1:30 PM 27.3 °F 19.1 °F 17.1 °F 65% 30.63 in - WSW 8.1 mph - N/A   Unknown
2:30 PM 28 °F - 18 °F 55% 30.61 in - WSW 10.4 mph - -  
2:30 PM 28.2 °F 18.9 °F 18.3 °F 66% 30.61 in - WSW 10.4 mph - N/A   Unknown
3:30 PM 28.0 °F 18.6 °F 17.4 °F 64% 30.60 in - West 10.4 mph - N/A   Unknown
4:30 PM 28.8 °F 21.7 °F 18.5 °F 66% 30.59 in - West 6.9 mph - N/A   Unknown
5:30 PM 29 °F - 20 °F 57% 30.59 in - WSW 11.5 mph - -  
5:30 PM 28.9 °F 19.2 °F 19.6 °F 68% 30.59 in - WSW 11.5 mph - N/A   Unknown
6:30 PM 29.8 °F 19.3 °F 20.8 °F 69% 30.58 in - WSW 13.8 mph - N/A   Unknown
7:30 PM 30.6 °F 20.7 °F 21.4 °F 69% 30.57 in - WSW 12.7 mph - N/A   Unknown
8:30 PM 31 °F - 22 °F 59% 30.57 in - WSW 12.7 mph - -  
8:30 PM 31.1 °F 21.4 °F 22.3 °F 70% 30.57 in - WSW 12.7 mph - N/A   Unknown
9:30 PM 31.5 °F 21.8 °F 23.5 °F 73% 30.56 in - SSW 12.7 mph 19.6 mph N/A   Unknown
10:30 PM 30.6 °F 21.2 °F 22.5 °F 72% 30.54 in - South 11.5 mph - N/A   Unknown
11:30 PM 31 °F - 23 °F 61% 30.52 in - South 13.8 mph - -  
11:30 PM 31.3 °F 21.1 °F 22.6 °F 70% 30.52 in - South 13.8 mph - N/A   Unknown